Regional Weather Roundup
Issued by NWS Newport/Morehead, NC

Current Version | Previous Version | Graphics & Text | Print | Product List | Glossary On
Versions: 1 2 3 4 5 6 7 8 9 10 11 12 13 14 15 16 17 18 19 20 21 22 23 24 25 26 27 28 29 30 31 32 33 34 35 36 37 38 39 40 41 42 43 44 45 46 47 48 49 50
000
ASUS42 KMHX 271724
RWRMHX
WEATHER ROUNDUP FOR EASTERN NORTH CAROLINA
NATIONAL WEATHER SERVICE NEWPORT/MOREHEAD CITY NC
100 PM EDT MON APR 27 2015

NOTE: "FAIR" INDICATES FEW OR NO CLOUDS BELOW 12,000 FEET
WITH NO SIGNIFICANT WEATHER AND/OR OBSTRUCTIONS TO VISIBILITY

NCZ015>017-031-032-045>047-102-103-271800-
NORTH COAST

CITY           SKY/WX    TMP DP  RH WIND       PRES   REMARKS
EDENTON        SUNNY     67  38  34 NW15G23   29.78F
ELIZABETH CITY MOSUNNY   66  42  41 W16G24    29.76F
KITTY HAWK     SUNNY     63  44  50 W8        29.76F
MANTEO         SUNNY     63  41  44 NW9       29.77F

$$

NCZ045>047-081-094-103-104-271800-
CENTRAL COAST

CITY           SKY/WX    TMP DP  RH WIND       PRES   REMARKS
FRISCO         SUNNY     61  40  45 NW8       29.79S
SWANQUARTER      N/A     64 N/A N/A NW8G17    29.77S

$$

NCZ095-097-098-100-101-271800-
SOUTHERN COAST

CITY           SKY/WX    TMP DP  RH WIND       PRES   REMARKS
BEAUFORT       SUNNY     67  40  37 NW12      29.80S
CEDAR ISLAND     N/A     64 N/A N/A NW6       29.85S
JACKSONVILLE   SUNNY     67  38  34 N9        29.81F
PINEY ISLAND   SUNNY    N/A N/A N/A N8        29.80S
WILMINGTON     SUNNY     68  40  35 NW9       29.82F


$$

NCZ011>013-027>030-043-044-078>080-089-090>093-098-271800-
COASTAL PLAIN

CITY           SKY/WX    TMP DP  RH WIND       PRES   REMARKS
AHOSKIE        SUNNY     62  40  43 NW8       29.80F
CLINTON        PTSUNNY   66  47  50 NW6       29.82F
ELIZABETHTOWN  SUNNY     66  42  40 CALM      29.82F
GOLDSBORO      PTSUNNY   67  42  41 NW8       29.78F
GREENVILLE     MOSUNNY   66  43  42 W8G16     29.82F
HAVELOCK       MOSUNNY   67  41  38 N8        29.81S
KENANSVILLE    MOSUNNY   67  40  36 NW9G16    29.82F
KINSTON        MOSUNNY   66  41  39 NW8       29.81F
NEW BERN       MOSUNNY   69  42  37 NW10      29.82S
RICHLANDS      PTSUNNY   66  39  37 NW8       29.82S
ROCKY MOUNT    MOSUNNY   67  37  33 NW14G21   29.81F
WASHINGTON     MOSUNNY   66  41  40 NW8G18    29.78F
WHITEVILLE     SUNNY     66  41  40 W3        29.81F

$$

AMZ130-135-150-152-154-156-158-170-250-252-270-ANZ085-086-088-633-658-670-271800-
MARINE OBSERVATIONS

STATION/POSITION TIME  TEMP    WIND        PRES    WAVE   SWELL
                       AIR SEA DIR/SP/G            HT/PER HT/PER
                 (UTC) (F)     (DEG/KT/KT) (MB)    (FT/S) (FT/S)
CHESAPEAKE LIGHT 1700   51      40/ 13/ 14 1009.0
64 E VA BEACH    1650   53 56  310/ 12/ 14 1007.7    3/ 7   3/ 7
DUCK             1700   61 55  230/  9/ 12 1006.6
2 E DUCK         1611      56                N/A     3/ 8
OREGON INLET     1700   62 55  310/ 10/ 13 1008.1
13E OREGON INLT  NOT AVBL
HATTERAS CG      1700   61 61  290/  8/  9 1008.5
DIAMOND BUOY     1650   61 74  350/ 12/ 17 1008.7    5/10   5/10
CAPE LOOKOUT     1700   63     290/  7/  9 1008.8
BEAUFORT LAB     1700   65 61  350/  7/  9 1008.2
27 SE WRIGHTSVLE 1700   59 72  360/ 10/ 12   N/A
5 SE WRIGHTSVLE  1608   62 65  350/  6/  8 1010.2
225 S CAPE HAT   1650   67 71  320/ 10/ 14 1006.8    5/ 7   5/ 7
41 SE CHARLESTON 1650   60 71  360/ 14/ 17 1010.0    3/ 6   2/ 7

$$



USA.gov is the U.S. government's official web portal to all federal, state and local government web resources and services.